York, PA

7:30 AM EST on January 19, 2018 (GMT -0500)
York

Weather History for KTHV - October, 2013

Change the Weather History Date:

Wednesday, October 16, 2013

  Actual Average Record
Temperature  
Mean Temperature 60 °F -  
Max Temperature 66 °F 0 °F 77 °F (2008)
Min Temperature 54 °F - 28 °F (2006)
Degree Days  
Heating Degree Days 5    
Growing Degree Days 10 (Base 50)    
Moisture  
Dew Point 56 °F    
Average Humidity 81    
Maximum Humidity 90    
Minimum Humidity 70    
Precipitation  
Precipitation 0.00 in - - ()
Sea Level Pressure  
Sea Level Pressure 30.01 in    
Wind  
Wind Speed 1 mph (SSE)    
Max Wind Speed 5 mph    
Max Gust Speed -    
Visibility 9 miles    
Events Rain    
Averages and records for this station are not official NWS values.
T = Trace of Precipitation, MM = Missing Value Source: NWS Daily Summary

Daily Weather History Graph

Daily Weather History Graph

Search for Another Location

Airport or City:

Trip Planner

Search our weather history database for the weather conditions in past years. The results will help you decide how hot, cold, wet, or windy it might be!

Date:

Astronomy

Oct. 16, 2013 Rise Set
Actual Time 7:19 AM EDT 6:26 PM EDT
Civil Twilight 6:51 AM EDT 6:53 PM EDT
Nautical Twilight 6:20 AM EDT 7:24 PM EDT
Astronomical Twilight 5:49 AM EDT 7:56 PM EDT
Moon 5:04 PM EDT (10/16) 4:44 AM EDT (10/16)
Length of Visible Light 12h 01m
Length of Day
11h 07m
Waxing Gibbous, 94% of the Moon is Illuminated
Oct 16
Waxing Gibbous
Oct 18
Full
Oct 26
Last Quarter
Nov 3
New
Nov 10
First Quarter

Hourly Weather History & Observations

Time (EDT) Temp. Dew Point Humidity Pressure Visibility Wind Dir Wind Speed Gust Speed Precip Events Conditions
12:53 AM 54.0 °F 50.0 °F 86% 30.09 in 10.0 mi Calm Calm - N/A   Mostly Cloudy
1:53 AM 55.9 °F 51.1 °F 84% 30.09 in 10.0 mi Calm Calm - N/A   Overcast
2:50 AM 55.4 °F 51.8 °F 88% 30.09 in 10.0 mi Calm Calm - N/A   Overcast
2:53 AM 55.9 °F 51.1 °F 84% 30.09 in 10.0 mi Calm Calm - N/A   Overcast
3:53 AM 55.9 °F 52.0 °F 87% 30.09 in 7.0 mi SE 3.5 mph - 0.00 in Rain Light Rain
4:53 AM 57.0 °F 52.0 °F 83% 30.07 in 10.0 mi Calm Calm - 0.00 in   Overcast
5:53 AM 57.0 °F 53.1 °F 87% 30.07 in 10.0 mi Calm Calm - N/A   Overcast
6:53 AM 57.0 °F 53.1 °F 87% 30.06 in 10.0 mi Calm Calm - N/A   Overcast
7:53 AM 57.0 °F 53.1 °F 87% 30.07 in 10.0 mi ESE 3.5 mph - N/A   Overcast
8:53 AM 57.9 °F 52.0 °F 81% 30.07 in 10.0 mi ESE 4.6 mph - N/A   Overcast
9:51 AM 60.8 °F 53.6 °F 77% 30.06 in 10.0 mi SE 3.5 mph - N/A   Overcast
9:53 AM 60.1 °F 53.1 °F 78% 30.06 in 10.0 mi ESE 3.5 mph - N/A   Overcast
10:53 AM 63.0 °F 54.0 °F 72% 30.05 in 10.0 mi Calm Calm - N/A   Overcast
11:27 AM 62.6 °F 55.4 °F 77% 30.04 in 10.0 mi SW 3.5 mph - N/A   Mostly Cloudy
11:53 AM 64.0 °F 55.0 °F 73% 30.03 in 10.0 mi Calm Calm - N/A   Mostly Cloudy
12:53 PM 66.0 °F 55.9 °F 70% 30.01 in 10.0 mi Calm Calm - N/A   Overcast
1:53 PM 66.9 °F 57.9 °F 73% 29.99 in 10.0 mi SSW 3.5 mph - N/A   Overcast
2:53 PM 66.0 °F 57.0 °F 73% 29.98 in 10.0 mi SSW 4.6 mph - N/A   Overcast
3:53 PM 66.9 °F 57.9 °F 73% 29.97 in 10.0 mi Calm Calm - N/A   Overcast
4:19 PM 66.2 °F 57.2 °F 73% 29.96 in 10.0 mi SW 3.5 mph - N/A   Overcast
4:53 PM 66.9 °F 57.9 °F 73% 29.95 in 10.0 mi SSE 4.6 mph - N/A   Scattered Clouds
5:53 PM 64.9 °F 57.9 °F 78% 29.94 in 10.0 mi SSE 4.6 mph - N/A   Partly Cloudy
6:53 PM 64.0 °F 57.9 °F 80% 29.94 in 10.0 mi Calm Calm - N/A   Clear
7:53 PM 64.0 °F 57.9 °F 80% 29.94 in 8.0 mi SSE 3.5 mph - N/A   Clear
8:53 PM 63.0 °F 59.0 °F 87% 29.95 in 6.0 mi Calm Calm - N/A   Partly Cloudy
9:25 PM 62.6 °F 59.0 °F 88% 29.94 in 5.0 mi Variable 3.5 mph - N/A   Scattered Clouds
9:50 PM 62.6 °F 59.0 °F 88% 29.94 in 6.0 mi Variable 3.5 mph - N/A   Overcast
9:53 PM 63.0 °F 59.0 °F 87% 29.95 in 6.0 mi Calm Calm - N/A   Overcast
10:02 PM 62.6 °F 59.0 °F 88% 29.94 in 6.0 mi Calm Calm - N/A   Mostly Cloudy
10:53 PM 63.0 °F 59.0 °F 87% 29.94 in 6.0 mi Calm Calm - N/A   Overcast
11:53 PM 63.0 °F 60.1 °F 90% 29.91 in 9.0 mi SSW 4.6 mph - N/A   Mostly Cloudy